[[{"header":{"parameterUnit":"m.s-1","parameterCategory":1,"la1":30.2991,"la2":30.254,"lo1":-89.0895,"lo2":-89.0444,"dy":0.0017,"dx":0.0017,"nx":28,"ny":28,"refTime":"2025-04-03T09:00:00:Z","depth":0,"parameterNumber":2,"parameterNumberName":"U-component_of_WINDS"},"data":[0,0,0,0,0,0,0,0,0,0,0,0,0,0,0,0,0,0,0,0,0,0,0,0,0,0,0,0,0,0,0,0,0,0,0,0,0,0,0,0,0,0,0,0,0,0,0,0,0,0,0,0,0,0,0,0,0,0,-5.4571,-5.4572,0,-5.4717,-5.4719,-5.472,-5.4741,-5.4739,-5.4738,-5.4737,-5.4884,-5.4889,-5.4894,0,0,0,0,0,0,0,0,0,0,0,0,0,-5.4308,-5.4313,-5.4571,-5.4572,-5.4574,-5.4717,-5.4719,-5.4721,-5.4741,-5.4739,-5.4737,-5.4736,-5.4882,-5.4888,-5.4894,0,0,0,0,0,0,0,0,0,0,0,0,0,-5.4435,-5.4314,-5.457,-5.4602,-5.4606,-5.4716,-5.4719,-5.4721,-5.4741,-5.4739,-5.4737,-5.4735,-5.488,-5.4888,-5.4895,-5.4984,0,0,-5.4919,-5.4922,0,0,0,0,0,0,0,0,-5.4427,-5.4444,-5.4595,-5.46,-5.4605,-5.4708,-5.468,-5.4809,-5.4742,-5.469,-5.4737,-5.4734,-5.4827,-5.4839,-5.4871,-5.4991,-5.4997,-5.492,-5.4924,-5.4928,-5.493,0,0,0,0,0,0,0,-5.4419,-5.4438,-5.4628,-5.4597,-5.4603,-5.4608,-5.4624,-5.4705,-5.4768,-5.4694,-5.4696,-5.4713,-5.4829,-5.4863,-5.4874,-5.4999,-5.4919,-5.4926,-5.4931,-5.4934,-5.52,-5.5202,0,0,0,0,0,0,-5.4404,-5.4431,-5.4624,-5.4633,-5.4509,-5.4614,-5.4632,-5.4677,-5.4767,-5.4779,-5.4715,-5.4713,-5.4851,-5.4865,-5.488,-5.4989,-5.4928,-5.4935,-5.4939,-5.5198,-5.5201,-5.5203,0,0,0,0,0,0,-5.4399,-5.4421,-5.4618,-5.4532,-5.4558,-5.4621,-5.4672,-5.4681,-5.4715,-5.4783,-5.4794,-5.4738,-5.485,-5.4869,-5.4958,-5.4994,-5.4938,-5.4946,-5.5195,-5.5199,-5.5202,-5.5208,0,0,0,0,0,0,-5.4391,-5.4419,-5.4454,-5.4533,-5.4562,-5.4694,-5.4674,-5.4685,-5.4729,-5.4729,-5.4807,-5.4818,-5.485,-5.4946,-5.4966,-5.5004,-5.4952,-5.5192,-5.5196,-5.5201,-5.5205,-5.5211,-5.5217,0,0,0,0,0,-5.4382,-5.4449,-5.4455,-5.4478,-5.4607,-5.4696,-5.4713,-5.4748,-5.4732,-5.4766,-5.481,-5.4816,-5.4988,-5.4955,-5.4977,-5.5018,-5.519,-5.5195,-5.52,-5.5202,-5.521,-5.5217,0,0,0,0,0,0,-5.4371,-5.446,-5.4468,-5.4563,-5.4622,-5.4699,-5.4744,-5.4755,-5.482,-5.4817,-5.4857,-5.4875,-5.4962,-5.5,-5.4962,-5.5109,-5.5087,-5.5097,-5.5081,-5.5089,-5.5095,-5.5083,-5.4958,0,0,0,0,0,-5.438,-5.4445,-5.452,-5.4596,-5.4626,-5.468,-5.472,-5.4743,-5.4805,-5.483,-5.488,-5.494,-5.5008,-5.5051,-5.5117,-5.5212,-5.5228,-5.5251,-5.5257,-5.5261,-5.5269,-5.5321,-5.5332,-5.5221,-5.5221,-5.5221,0,0,-5.4398,-5.4455,-5.4494,-5.4596,-5.4644,-5.4711,-5.4701,-5.4772,-5.4821,-5.484,-5.4928,-5.4967,-5.5037,-5.5129,-5.5172,-5.5163,-5.5304,-5.5268,-5.5272,-5.5276,-5.5328,-5.5338,-5.5348,-5.5224,-5.5224,-5.5223,0,0,-5.4465,-5.4516,-5.4585,-5.4634,-5.4708,-5.4744,-5.4761,-5.4838,-5.4864,-5.4953,-5.4969,-5.5029,-5.5145,-5.5194,-5.5234,-5.5322,-5.533,-5.5343,-5.5373,-5.5424,-5.5433,-5.5441,-5.5471,-5.5482,-5.5351,-5.5351,-5.5351,0,-5.4478,-5.458,-5.4619,-5.4689,-5.4734,-5.4756,-5.4826,-5.4872,-5.4963,-5.4993,-5.4982,-5.5129,-5.5177,-5.5281,-5.5303,-5.5335,-5.5355,-5.5332,-5.5429,-5.5437,-5.5445,-5.5474,-5.5486,-5.5352,-5.5352,-5.5351,-5.5351,0,-5.4592,-5.4662,-5.4709,-5.4798,-5.4848,-5.4918,-5.4967,-5.5013,-5.5032,-5.507,-5.516,-5.522,-5.5298,-5.5325,-5.5344,-5.5432,-5.5424,-5.5421,-5.5399,-5.5456,-5.5484,-5.5496,-5.5353,-5.5353,-5.5352,-5.5352,0,0,-5.4653,-5.4764,-5.478,-5.4821,-5.4906,-5.496,-5.5032,-5.511,-5.5148,-5.5211,-5.5271,-5.537,-5.5368,-5.5414,-5.5439,-5.5484,-5.5549,-5.5475,-5.5477,-5.5485,-5.5649,-5.5649,-5.5661,-5.5556,-5.5558,-5.556,-5.5642,0,-5.4728,-5.4856,-5.4895,-5.5002,-5.5067,-5.5091,-5.5154,-5.5212,-5.5249,-5.531,-5.5352,-5.542,-5.5413,-5.5441,-5.5487,-5.5531,-5.5582,-5.5526,-5.5611,-5.5613,-5.559,-5.5676,-5.5676,-5.5751,-5.5654,-5.5656,-5.5657,0,-5.4833,-5.4899,-5.5013,-5.509,-5.5118,-5.5174,-5.5248,-5.5307,-5.5374,-5.5398,-5.545,-5.5472,-5.5547,-5.5524,-5.5628,-5.5589,-5.5627,-5.5654,-5.5658,-5.5665,-5.5636,-5.5683,-5.5776,-5.5786,-5.5675,-5.5674,-5.5672,0,-5.4864,-5.4981,-5.5065,-5.5099,-5.5191,-5.523,-5.527,-5.5335,-5.538,-5.5446,-5.5475,-5.5548,-5.5588,-5.5644,-5.5685,-5.5665,-5.5786,-5.5766,-5.5807,-5.5806,-5.5828,-5.5826,-5.5926,-5.5857,-5.5857,-5.5856,-5.5856,0,-5.4942,-5.5011,-5.508,-5.5131,-5.5208,-5.5253,-5.5328,-5.5369,-5.5428,-5.5487,-5.5513,-5.5568,-5.562,-5.5682,-5.5715,-5.5796,-5.5814,-5.5835,-5.5842,-5.5831,-5.5828,-5.5854,-5.5849,-5.5859,-5.5859,-5.5858,-5.5858,0,-5.4988,-5.5038,-5.513,-5.5211,-5.5233,-5.5286,-5.5355,-5.5406,-5.5445,-5.552,-5.554,-5.5602,-5.5677,-5.5724,-5.5819,-5.5841,-5.5929,-5.5936,-5.5906,-5.5909,-5.5946,-5.5941,-5.6064,-5.6082,-5.6003,-5.6004,-5.6005,0,-5.5034,-5.5088,-5.5175,-5.5216,-5.5257,-5.5325,-5.5371,-5.5417,-5.5464,-5.5545,-5.5586,-5.5663,-5.5726,-5.5844,-5.5897,-5.597,-5.5977,-5.6015,-5.5988,-5.5975,-5.5975,-5.5971,-5.5976,-5.6019,-5.6019,-5.602,-5.602,0,-5.511,-5.5132,-5.5197,-5.5272,-5.5327,-5.5388,-5.5449,-5.5482,-5.5538,-5.559,-5.5667,-5.5716,-5.5814,-5.5889,-5.5967,-5.6008,-5.6023,-5.6029,-5.6042,-5.603,-5.601,-5.6019,-5.5916,-5.6025,-5.6025,-5.6024,-5.6024,-5.6024,-5.5156,-5.5204,-5.5273,-5.5346,-5.5397,-5.5454,-5.5505,-5.5552,-5.5617,-5.57,-5.5724,-5.5804,-5.5871,-5.5978,-5.6021,-5.6084,-5.6079,-5.6098,-5.6102,-5.6106,-5.6105,-5.6002,-5.6099,-5.6099,-5.6099,-5.6098,-5.6098,0,-5.5231,-5.5277,-5.5344,-5.5428,-5.5486,-5.5497,-5.5566,-5.5612,-5.5683,-5.5745,-5.5807,-5.5896,-5.597,-5.6029,-5.6105,-5.6144,-5.6153,-5.6163,-5.6159,-5.6168,-5.6106,-5.6087,-5.6154,-5.6154,-5.6154,-5.6154,-5.6154,-5.6154,-5.5277,-5.5359,-5.539,-5.5498,-5.5544,-5.5623,-5.5661,-5.5713,-5.5763,-5.5861,-5.5923,-5.5962,-5.6023,-5.6104,-5.6172,-5.6188,-5.6214,-5.6221,-5.6238,-5.6179,-5.6172,-5.6166,-5.6148,-5.6227,-5.6227,-5.6294,-5.6295,-5.6295]},{"header":{"parameterUnit":"m.s-1","parameterCategory":1,"la1":30.2991,"la2":30.254,"lo1":-89.0895,"lo2":-89.0444,"dy":0.0017,"dx":0.0017,"nx":28,"ny":28,"refTime":"2025-04-03T09:00:00:Z","depth":0,"parameterNumber":3,"parameterNumberName":"V-component_of_WINDS"},"data":[0,0,0,0,0,0,0,0,0,0,0,0,0,0,0,0,0,0,0,0,0,0,0,0,0,0,0,0,0,0,0,0,0,0,0,0,0,0,0,0,0,0,0,0,0,0,0,0,0,0,0,0,0,0,0,0,0,0,5.6787,5.6789,0,5.6934,5.6935,5.6937,5.6937,5.6935,5.6933,5.6931,5.7081,5.7086,5.7092,0,0,0,0,0,0,0,0,0,0,0,0,0,5.6508,5.6513,5.6787,5.6789,5.6791,5.6933,5.6935,5.6937,5.6937,5.6935,5.6932,5.693,5.7079,5.7086,5.7092,0,0,0,0,0,0,0,0,0,0,0,0,0,5.664,5.6515,5.6786,5.6807,5.6811,5.6933,5.6935,5.6938,5.6937,5.6934,5.6932,5.6929,5.7076,5.7085,5.7093,5.7204,0,0,5.712,5.7124,0,0,0,0,0,0,0,0,5.6632,5.665,5.6803,5.6806,5.681,5.6914,5.6892,5.7027,5.6938,5.6889,5.6931,5.6928,5.7027,5.704,5.7074,5.7211,5.7218,5.7121,5.7126,5.713,5.7132,0,0,0,0,0,0,0,5.6623,5.6643,5.6845,5.6805,5.681,5.681,5.6826,5.6918,5.6973,5.6893,5.6894,5.6911,5.7029,5.7065,5.7077,5.722,5.712,5.7128,5.7133,5.7137,5.746,5.7463,0,0,0,0,0,0,5.6609,5.6636,5.684,5.6849,5.6712,5.6818,5.6835,5.6883,5.6972,5.6982,5.6913,5.691,5.7052,5.7067,5.7082,5.7221,5.713,5.7138,5.7143,5.7457,5.7461,5.7464,0,0,0,0,0,0,5.6603,5.6628,5.6834,5.6743,5.6769,5.6825,5.688,5.6888,5.6924,5.6987,5.6997,5.694,5.705,5.707,5.7175,5.7226,5.7142,5.7149,5.7453,5.7458,5.7462,5.7497,0,0,0,0,0,0,5.6595,5.6626,5.6667,5.6744,5.6774,5.6924,5.6883,5.6893,5.6939,5.6937,5.7015,5.7025,5.705,5.7162,5.7184,5.7236,5.7156,5.7448,5.7455,5.7461,5.7492,5.7503,5.7512,0,0,0,0,0,5.6586,5.667,5.667,5.6694,5.6828,5.6927,5.6944,5.6971,5.6943,5.6987,5.7028,5.7022,5.7217,5.7173,5.7197,5.7253,5.7445,5.7453,5.746,5.7487,5.75,5.7512,0,0,0,0,0,0,5.6598,5.6681,5.6681,5.6793,5.6853,5.6926,5.6982,5.6984,5.7053,5.7048,5.7078,5.7096,5.7201,5.7237,5.7187,5.7367,5.7328,5.7341,5.734,5.7353,5.7363,5.7353,5.7163,0,0,0,0,0,5.6613,5.6687,5.6755,5.6847,5.6878,5.6925,5.6969,5.6985,5.7048,5.7073,5.7121,5.7183,5.7259,5.7307,5.738,5.7497,5.7515,5.7548,5.7558,5.7566,5.7577,5.7645,5.7661,5.7489,5.7489,5.7489,0,0,5.6647,5.6701,5.6745,5.6851,5.69,5.6976,5.6946,5.7027,5.7084,5.7085,5.7188,5.7226,5.7297,5.7409,5.7461,5.7443,5.7629,5.7576,5.7582,5.7589,5.7655,5.7671,5.7685,5.7495,5.7494,5.7493,0,0,5.6747,5.6794,5.6878,5.6928,5.7002,5.7033,5.7053,5.7128,5.7153,5.7257,5.7261,5.7329,5.7457,5.7509,5.7552,5.7676,5.7675,5.7698,5.7753,5.7818,5.7832,5.7844,5.7891,5.7907,5.7709,5.7709,5.7709,0,5.6779,5.6893,5.6921,5.7003,5.7051,5.7057,5.7143,5.719,5.7284,5.7317,5.7296,5.746,5.7507,5.7634,5.7664,5.7698,5.7724,5.769,5.7828,5.784,5.7852,5.7897,5.7914,5.7712,5.7711,5.7711,5.7711,0,5.6931,5.701,5.7069,5.7162,5.7216,5.73,5.7341,5.7393,5.7405,5.7439,5.7546,5.7604,5.769,5.7721,5.7732,5.785,5.7837,5.7821,5.7782,5.7871,5.7914,5.7931,5.7715,5.7715,5.7714,5.7713,0,0,5.7041,5.715,5.7171,5.7215,5.7299,5.7361,5.7446,5.7532,5.7577,5.7642,5.7716,5.7826,5.7813,5.7862,5.788,5.7937,5.8035,5.7915,5.7917,5.7938,5.8172,5.8185,5.8204,5.8035,5.8038,5.8041,5.8167,0,5.7153,5.7304,5.7333,5.7465,5.7541,5.7549,5.7624,5.7684,5.7719,5.7789,5.7826,5.7905,5.7881,5.7911,5.7968,5.8011,5.8083,5.8002,5.8106,5.8109,5.809,5.8226,5.824,5.8356,5.8184,5.8187,5.8189,0,5.7302,5.7373,5.7514,5.7591,5.7623,5.769,5.7772,5.7838,5.7908,5.7929,5.7986,5.7997,5.8088,5.8045,5.8171,5.8116,5.816,5.8188,5.8193,5.8205,5.8155,5.8244,5.8393,5.8412,5.8215,5.8213,5.8211,0,5.7373,5.7503,5.7605,5.7641,5.7733,5.778,5.782,5.7887,5.7938,5.8009,5.8043,5.8124,5.8169,5.8232,5.8266,5.8231,5.8392,5.835,5.8414,5.8413,5.8448,5.8446,5.8608,5.8473,5.8473,5.8472,5.8472,0,5.7495,5.7581,5.7638,5.7701,5.7799,5.7832,5.7928,5.7968,5.8027,5.8099,5.811,5.8177,5.8218,5.8291,5.8319,5.8421,5.8441,5.8462,5.8469,5.8462,5.846,5.8493,5.8487,5.8477,5.8476,5.8475,5.8474,0,5.759,5.7632,5.7744,5.7822,5.7844,5.7913,5.7981,5.8043,5.8078,5.8169,5.8192,5.8248,5.8336,5.8376,5.8483,5.8502,5.862,5.862,5.8597,5.86,5.8662,5.8657,5.8853,5.8882,5.8725,5.8727,5.8728,0,5.7667,5.7734,5.782,5.7869,5.7911,5.799,5.8043,5.8078,5.8132,5.8218,5.827,5.8359,5.8431,5.8571,5.8622,5.8705,5.8708,5.8772,5.8721,5.8714,5.8713,5.8709,5.8718,5.8781,5.8783,5.8784,5.8785,0,5.7799,5.7817,5.7892,5.7975,5.8038,5.8105,5.8171,5.821,5.8256,5.8317,5.8407,5.8464,5.8575,5.8664,5.8751,5.8793,5.8798,5.88,5.882,5.8816,5.8801,5.8813,5.8625,5.8796,5.8795,5.8794,5.8793,5.8793,5.7889,5.7951,5.8022,5.8106,5.816,5.8222,5.8285,5.8329,5.8405,5.8499,5.8515,5.8612,5.8683,5.8801,5.8847,5.8924,5.8909,5.8937,5.8944,5.8951,5.8957,5.8787,5.894,5.8939,5.8939,5.8939,5.8939,0,5.8025,5.8071,5.8148,5.8241,5.8308,5.8307,5.838,5.8437,5.8522,5.8588,5.866,5.8765,5.8852,5.891,5.8998,5.9049,5.9054,5.9071,5.9069,5.9079,5.8963,5.8939,5.9066,5.9066,5.9066,5.9066,5.9066,5.9066,5.8103,5.8208,5.8235,5.8367,5.8414,5.8509,5.8552,5.861,5.8663,5.8781,5.8853,5.8891,5.8954,5.9048,5.9128,5.9143,5.9176,5.9195,5.9209,5.91,5.9087,5.9074,5.9052,5.9201,5.9201,5.932,5.9321,5.9321]}]]